• In France
  • List of Countries
  • For 7 days
  • Water Temperature
  • Satellite Maps
  • Weather Map
  • Weather Widgets
  • user-avatar
    Login

    Hourly Weather Banbridge

    Today, 21 November, Tuesday

    Time Temperature Precipitation Wind Pressure Humidity
    00:00 +12°C° 0 mm 3 mps 747 mmHg 96%
    01:00 +12°C° 0.7 mm 3 mps 747 mmHg 96%
    02:00 +12°C° 0.7 mm 4 mps 747 mmHg 96%
    03:00 +12°C° 0.7 mm 4 mps 747 mmHg 95%
    04:00 +12°C° 0.2 mm 5 mps 747 mmHg 95%
    05:00 +12°C° 0.2 mm 5 mps 746 mmHg 94%
    06:00 +12°C° 0.2 mm 5 mps 746 mmHg 94%
    07:00 +12°C° 0 mm 5 mps 746 mmHg 94%
    08:00 +12°C° 0 mm 4 mps 746 mmHg 94%
    09:00 +11°C° 0 mm 4 mps 745 mmHg 95%
    10:00 +11°C° 0.1 mm 4 mps 745 mmHg 94%
    11:00 +11°C° 0.1 mm 4 mps 744 mmHg 93%
    12:00 +12°C° 0.1 mm 5 mps 744 mmHg 92%
    13:00 +12°C° 0.1 mm 5 mps 743 mmHg 93%
    14:00 +11°C° 0.1 mm 6 mps 742 mmHg 93%
    15:00 +11°C° 0.1 mm 6 mps 741 mmHg 93%
    16:00 +11°C° 0.1 mm 6 mps 740 mmHg 93%
    17:00 +11°C° 0.1 mm 6 mps 740 mmHg 92%
    18:00 +11°C° 0.1 mm 6 mps 739 mmHg 91%
    19:00 +11°C° 0 mm 6 mps 739 mmHg 91%
    20:00 +11°C° 0 mm 6 mps 739 mmHg 90%
    21:00 +10°C° 0 mm 6 mps 739 mmHg 90%
    22:00 +10°C° 0 mm 6 mps 739 mmHg 91%
    23:00 +9°C° 0 mm 6 mps 739 mmHg 92%

    Tomorrow, 22 November, Wednesday

    Time Temperature Precipitation Wind Pressure Humidity
    00:00 +9°C° 0 mm 5 mps 739 mmHg 93%
    01:00 +9°C° 0 mm 5 mps 738 mmHg 93%
    02:00 +9°C° 0 mm 5 mps 738 mmHg 94%
    03:00 +8°C° 0 mm 5 mps 737 mmHg 94%
    04:00 +8°C° 0.5 mm 4 mps 736 mmHg 95%
    05:00 +8°C° 0.5 mm 4 mps 736 mmHg 95%
    06:00 +9°C° 0.5 mm 3 mps 735 mmHg 96%
    07:00 +8°C° 3.5 mm 4 mps 734 mmHg 96%
    08:00 +8°C° 3.5 mm 4 mps 733 mmHg 96%
    09:00 +7°C° 3.5 mm 4 mps 731 mmHg 97%
    10:00 +7°C° 3.3 mm 5 mps 730 mmHg 96%
    11:00 +8°C° 3.3 mm 6 mps 729 mmHg 96%
    12:00 +8°C° 3.3 mm 6 mps 728 mmHg 96%
    13:00 +8°C° 0.8 mm 6 mps 727 mmHg 95%
    14:00 +7°C° 0.8 mm 6 mps 727 mmHg 95%
    15:00 +7°C° 0.8 mm 5 mps 726 mmHg 95%
    16:00 +7°C° 0.2 mm 5 mps 726 mmHg 95%
    17:00 +6°C° 0.2 mm 4 mps 726 mmHg 95%
    18:00 +7°C° 0.2 mm 3 mps 725 mmHg 95%
    19:00 +7°C° 0.9 mm 2 mps 725 mmHg 95%
    20:00 +7°C° 0.9 mm 2 mps 725 mmHg 96%
    21:00 +8°C° 0.9 mm 1 mps 725 mmHg 97%
    22:00 +7°C° 0.4 mm 2 mps 725 mmHg 96%
    23:00 +7°C° 0.4 mm 2 mps 725 mmHg 96%

    Day after tomorrow, 23 November, Thursday

    Time Temperature Precipitation Wind Pressure Humidity
    00:00 +7°C° 0.4 mm 2 mps 725 mmHg 96%
    01:00 +7°C° 0 mm 3 mps 725 mmHg 95%
    02:00 +6°C° 0 mm 4 mps 726 mmHg 94%
    03:00 +5°C° 0 mm 6 mps 726 mmHg 94%
    04:00 +4°C° 0.1 mm 6 mps 728 mmHg 91%
    05:00 +3°C° 0.1 mm 6 mps 729 mmHg 89%
    06:00 +2°C° 0.1 mm 6 mps 730 mmHg 87%
    07:00 +2°C° 0 mm 6 mps 731 mmHg 86%
    08:00 +2°C° 0 mm 7 mps 732 mmHg 85%
    09:00 0°C° 0 mm 7 mps 733 mmHg 84%
    10:00 +1°C° 0 mm 8 mps 733 mmHg 80%
    11:00 +2°C° 0 mm 9 mps 734 mmHg 75%
    12:00 +3°C° 0 mm 10 mps 734 mmHg 71%
    13:00 +3°C° 0 mm 10 mps 733 mmHg 71%
    14:00 +3°C° 0 mm 11 mps 733 mmHg 70%
    15:00 +3°C° 0 mm 11 mps 732 mmHg 69%
    16:00 +3°C° 0 mm 11 mps 732 mmHg 70%
    17:00 +3°C° 0 mm 11 mps 732 mmHg 71%
    18:00 +3°C° 0 mm 11 mps 731 mmHg 72%
    19:00 +3°C° 0 mm 11 mps 732 mmHg 72%
    20:00 +3°C° 0 mm 11 mps 733 mmHg 72%
    21:00 +3°C° 0 mm 11 mps 733 mmHg 71%
    22:00 +3°C° 0 mm 10 mps 735 mmHg 73%
    23:00 +2°C° 0 mm 10 mps 736 mmHg 75%

    24 November, Friday

    Time Temperature Precipitation Wind Pressure Humidity
    00:00 +2°C° 0 mm 9 mps 737 mmHg 77%
    01:00 +2°C° 0 mm 8 mps 738 mmHg 79%
    02:00 +2°C° 0 mm 7 mps 740 mmHg 81%
    03:00 +2°C° 0 mm 6 mps 741 mmHg 82%
    04:00 +1°C° 0 mm 5 mps 741 mmHg 84%
    05:00 +1°C° 0 mm 5 mps 742 mmHg 85%
    06:00 +1°C° 0 mm 5 mps 743 mmHg 86%
    07:00 0°C° 0 mm 4 mps 743 mmHg 85%
    08:00 0°C° 0 mm 4 mps 744 mmHg 85%
    09:00 +1°C° 0 mm 3 mps 745 mmHg 84%
    10:00 +2°C° 0 mm 3 mps 745 mmHg 80%
    11:00 +4°C° 0 mm 2 mps 746 mmHg 76%
    12:00 +5°C° 0 mm 2 mps 746 mmHg 72%
    13:00 +5°C° 0 mm 2 mps 746 mmHg 74%
    14:00 +6°C° 0 mm 1 mps 746 mmHg 76%
    15:00 +6°C° 0 mm 1 mps 746 mmHg 77%
    16:00 +5°C° 0 mm 1 mps 746 mmHg 79%
    17:00 +4°C° 0 mm 1 mps 747 mmHg 81%
    18:00 +3°C° 0 mm 1 mps 747 mmHg 83%
    19:00 +3°C° 0 mm 1 mps 747 mmHg 83%
    20:00 +3°C° 0 mm 1 mps 747 mmHg 82%
    21:00 +3°C° 0 mm 1 mps 747 mmHg 82%
    22:00 +2°C° 0 mm 2 mps 747 mmHg 82%
    23:00 +2°C° 0 mm 2 mps 747 mmHg 82%

    25 November, Saturday

    Time Temperature Precipitation Wind Pressure Humidity
    00:00 +1°C° 0 mm 3 mps 747 mmHg 83%
    01:00 +1°C° 0.1 mm 3 mps 747 mmHg 83%
    02:00 +1°C° 0.1 mm 3 mps 746 mmHg 83%
    03:00 0°C° 0.1 mm 4 mps 746 mmHg 82%
    04:00 0°C° 0.1 mm 4 mps 746 mmHg 81%
    05:00 0°C° 0.1 mm 5 mps 746 mmHg 79%
    06:00 0°C° 0.1 mm 5 mps 746 mmHg 78%
    07:00 -1°C° 0.1 mm 6 mps 747 mmHg 77%
    08:00 -1°C° 0.1 mm 6 mps 748 mmHg 76%
    09:00 -1°C° 0.1 mm 7 mps 748 mmHg 76%
    10:00 0°C° 0.1 mm 7 mps 749 mmHg 72%
    11:00 +2°C° 0.1 mm 7 mps 749 mmHg 68%
    12:00 +1°C° 0.1 mm 8 mps 750 mmHg 64%
    13:00 +1°C° 0.1 mm 8 mps 750 mmHg 65%
    14:00 +2°C° 0.1 mm 7 mps 750 mmHg 66%
    15:00 0°C° 0.1 mm 7 mps 750 mmHg 67%
    16:00 0°C° 0 mm 7 mps 751 mmHg 68%
    17:00 -1°C° 0 mm 7 mps 752 mmHg 70%
    18:00 -1°C° 0 mm 7 mps 753 mmHg 71%
    19:00 -1°C° 0.1 mm 7 mps 753 mmHg 72%
    20:00 -1°C° 0.1 mm 7 mps 754 mmHg 73%
    21:00 -2°C° 0.1 mm 7 mps 754 mmHg 73%
    22:00 -2°C° 0 mm 7 mps 755 mmHg 74%
    23:00 -2°C° 0 mm 7 mps 755 mmHg 74%

    26 November, Sunday

    Time Temperature Precipitation Wind Pressure Humidity
    00:00 -1°C° 0 mm 7 mps 756 mmHg 74%
    01:00 -2°C° 0 mm 7 mps 756 mmHg 75%
    02:00 -2°C° 0 mm 7 mps 756 mmHg 76%
    03:00 -2°C° 0 mm 7 mps 756 mmHg 77%
    04:00 -2°C° 0 mm 7 mps 757 mmHg 78%
    05:00 -2°C° 0 mm 7 mps 757 mmHg 79%
    06:00 -2°C° 0 mm 6 mps 757 mmHg 80%
    07:00 -2°C° 0 mm 6 mps 758 mmHg 80%
    08:00 -1°C° 0 mm 6 mps 758 mmHg 81%
    09:00 -1°C° 0 mm 6 mps 758 mmHg 81%
    10:00 +1°C° 0 mm 6 mps 758 mmHg 80%
    11:00 +1°C° 0 mm 6 mps 758 mmHg 79%
    12:00 +2°C° 0 mm 6 mps 758 mmHg 78%
    13:00 +2°C° 0.2 mm 6 mps 758 mmHg 82%
    14:00 +2°C° 0.2 mm 6 mps 757 mmHg 85%
    15:00 +2°C° 0.2 mm 6 mps 757 mmHg 88%
    16:00 +2°C° 0 mm 6 mps 756 mmHg 89%
    17:00 +3°C° 0 mm 6 mps 756 mmHg 91%
    18:00 +3°C° 0 mm 6 mps 756 mmHg 93%
    19:00 +3°C° 0.1 mm 6 mps 755 mmHg 91%
    20:00 +4°C° 0.1 mm 7 mps 755 mmHg 90%
    21:00 +4°C° 0.1 mm 7 mps 755 mmHg 88%
    22:00 +4°C° 0.2 mm 8 mps 754 mmHg 87%
    23:00 +4°C° 0.2 mm 8 mps 753 mmHg 86%
    Show more